Location: Brachbach
(49.1847°N, 9.7240°E)
Time: 07:25:55
(UTC+00:00)

CUBESAT XI-V - Visible Passes

Search period start: 11 March 2026 00:00
Search period end: 21 March 2026 00:00
Orbit: 643 x 664 km, 98.3° (Epoch: 10 March)

Date Brightness Start Highest point End Pass type
(mag) Time Alt. Az. Time Alt. Az. Time Alt. Az.
11 Mar ? 02:05:46 13° N 02:05:46 13° N 02:06:21 10° N visible
12 Mar ? 00:55:39 11° NNE 00:55:39 11° NNE 00:56:00 10° NNE visible
12 Mar ? 02:33:30 13° NNW 02:33:30 13° NNW 02:34:02 10° NNW visible
13 Mar ? 01:23:23 15° NNE 01:23:23 15° NNE 01:24:21 10° N visible
13 Mar ? 03:01:14 11° NNW 03:01:14 11° NNW 03:01:30 10° NNW visible
14 Mar ? 01:51:05 18° N 01:51:05 18° N 01:52:20 10° N visible
15 Mar ? 00:40:57 11° NE 00:40:57 11° NE 00:41:21 10° NNE visible
15 Mar ? 02:18:48 19° N 02:18:48 19° N 02:20:07 10° NNW visible
16 Mar ? 01:08:40 16° NNE 01:08:40 16° NNE 01:10:06 10° NNE visible
16 Mar ? 02:46:30 18° NNW 02:46:30 18° NNW 02:47:40 10° NNW visible
17 Mar ? 01:36:21 21° NNE 01:36:21 21° NNE 01:38:14 10° N visible
17 Mar ? 03:14:12 14° NW 03:14:12 14° NW 03:15:00 10° NNW visible
18 Mar ? 02:04:03 26° N 02:04:03 26° N 02:06:05 10° N visible
18 Mar ? 03:41:53 10° NW 03:41:53 10° NW 03:41:56 10° NW visible
19 Mar ? 00:53:53 15° NE 00:53:53 15° NE 00:55:40 10° NNE visible
19 Mar ? 02:31:44 26° NNW 02:31:44 26° NNW 02:33:45 10° NNW visible
20 Mar ? 01:21:33 22° NE 01:21:33 22° NE 01:24:01 10° N visible
20 Mar ? 02:59:24 22° NW 02:59:24 22° NW 03:01:12 10° NNW visible
